Location: Unspecified
(42.9300°N, 71.1866°W)
Time: 20:51:51
(UTC-04:00)

Cosmos 2058 - Visible Passes

Search period start: 26 March 2017 00:00
Search period end: 05 April 2017 00:00
Orbit: 564 x 585 km, 82.5° (Epoch: 25 March)

Date Brightness Start Highest point End Pass type
(mag) Time Alt. Az. Time Alt. Az. Time Alt. Az.
26 Mar 4.3 21:15:19 10° N 21:17:39 29° NNE 21:17:39 29° NNE visible
26 Mar 6.1 22:53:34 10° NW 22:53:54 11° NW 22:53:54 11° NW visible
27 Mar 3.8 21:18:39 10° N 21:21:29 39° NNE 21:21:29 39° NNE visible
28 Mar 3.3 21:22:02 10° N 21:25:21 55° N 21:25:21 55° N visible
29 Mar 3.1 21:25:28 10° NNW 21:29:16 68° NW 21:29:16 68° NW visible
30 Mar 4.8 19:53:48 10° NE 19:55:41 13° ENE 19:56:57 11° E visible
30 Mar 3.4 21:28:57 10° NNW 21:33:01 54° W 21:33:13 53° WSW visible
31 Mar 4.6 19:56:33 10° NNE 19:59:15 17° ENE 20:00:57 13° E visible
31 Mar 4.1 21:32:30 10° NNW 21:36:23 39° W 21:37:13 35° WSW visible
01 Apr 4.2 19:59:33 10° NNE 20:02:46 21° ENE 20:05:00 14° ESE visible
01 Apr 4.6 21:36:07 10° NNW 21:39:43 30° W 21:41:16 23° SW visible
02 Apr 3.9 20:02:41 10° NNE 20:06:16 28° ENE 20:09:07 14° SE visible
02 Apr 5.1 21:39:49 10° NW 21:43:04 22° W 21:45:23 14° SW visible
03 Apr 3.5 20:05:54 10° N 20:09:45 36° ENE 20:13:18 11° SE visible
03 Apr 5.6 21:43:39 10° NW 21:46:22 17° W 21:49:04 10° SW visible
04 Apr 3.1 20:09:11 10° N 20:13:13 49° ENE 20:17:11 10° SSE visible
04 Apr 5.8 21:47:45 10° WNW 21:49:40 13° W 21:51:34 10° WSW visible
